Location: Bakov nad Jizerou
(50.4784°N, 14.9394°E)
Time: 23:40:02
(UTC+00:00)

Cosmos 192 - Pass Details

Date: 16 June 2021
Orbit: 702 x 712 km, 74.0° (Epoch: 23 July)

Event Time Altitude Azimuth Distance (km) Brightness Sun altitude
Exits shadow 22:54:35 26° 198° (SSW) 1,379 5.3 -16.1°
Maximum altitude 22:57:24 83° 112° (ESE) 719 4.3 -16.1°
Drops below altitude 10° 23:02:21 10° 25° (NNE) 2,186 7.9 -16.1°
Sets 23:04:40 0° 25° (NNE) 3,108 8.9 -16.1°
